RYR76HY EBCI-GMMW

Flight info

Callsign RYR76HY
Flight time 2h 34m
Altitude 31000
Route CIV N872 LESDO DCT KOVIN DCT DUCRA/N0438F350 UM728 RESMI UN857 DISAK DCT DIRMO DCT GUERE DCT EVPOK/N0438F370 DCT AGN DCT ANETO N860 AMR/N0439F360 M372 ESAMI/N0347F190 M372 ARI
Aircraft B738/M-SDE2E3FGHIRWXY/LB1

Departure

Time 2026-04-26 14:29
Airport Brussels South Charleroi Airport (EBCI)

Arrival

Time 2026-04-26 17:04
Airport Nador Al Aaroui International Airport (GMMW)
Time Latitude Longitude Altitude Speed Heading
2026-04-26 13:46 50.46837 4.46988 584 ft 0 kts 336°
2026-04-26 14:15 50.46833 4.46990 584 ft 3 kts 336°
2026-04-26 14:15 50.46815 4.47003 584 ft 3 kts 336°
2026-04-26 14:15 50.46796 4.47016 584 ft 3 kts 336°
2026-04-26 14:15 50.46778 4.47031 585 ft 3 kts 308°
2026-04-26 14:16 50.46770 4.47060 586 ft 3 kts 273°
2026-04-26 14:16 50.46769 4.47092 587 ft 3 kts 272°
2026-04-26 14:16 50.46772 4.47121 588 ft 0 kts 246°
2026-04-26 14:21 50.46765 4.47097 588 ft 6 kts 246°
2026-04-26 14:21 50.46740 4.47007 587 ft 10 kts 245°
2026-04-26 14:21 50.46713 4.46914 588 ft 9 kts 245°
2026-04-26 14:21 50.46684 4.46824 589 ft 9 kts 236°
2026-04-26 14:22 50.46626 4.46797 590 ft 9 kts 200°
2026-04-26 14:22 50.46584 4.46726 590 ft 10 kts 245°
2026-04-26 14:22 50.46543 4.46580 590 ft 19 kts 246°
2026-04-26 14:22 50.46485 4.46380 588 ft 20 kts 244°
2026-04-26 14:23 50.46427 4.46186 590 ft 19 kts 245°
2026-04-26 14:23 50.46371 4.45995 594 ft 19 kts 246°
2026-04-26 14:23 50.46317 4.45809 596 ft 19 kts 245°
2026-04-26 14:23 50.46261 4.45616 598 ft 19 kts 245°
2026-04-26 14:24 50.46207 4.45428 598 ft 19 kts 245°
2026-04-26 14:24 50.46155 4.45250 598 ft 18 kts 245°
2026-04-26 14:24 50.46104 4.45072 595 ft 17 kts 245°
2026-04-26 14:24 50.46054 4.44906 596 ft 17 kts 244°
2026-04-26 14:25 50.46007 4.44742 595 ft 16 kts 245°
2026-04-26 14:25 50.45961 4.44586 598 ft 16 kts 245°
2026-04-26 14:25 50.45934 4.44495 599 ft 0 kts 242°
2026-04-26 14:25 50.45933 4.44493 599 ft 2 kts 242°
2026-04-26 14:26 50.45908 4.44426 598 ft 9 kts 232°
2026-04-26 14:26 50.45867 4.44344 598 ft 9 kts 232°
2026-04-26 14:26 50.45828 4.44264 598 ft 9 kts 232°
2026-04-26 14:26 50.45788 4.44185 596 ft 10 kts 231°
2026-04-26 14:27 50.45740 4.44091 593 ft 12 kts 231°
2026-04-26 14:27 50.45689 4.43995 593 ft 11 kts 222°
2026-04-26 14:27 50.45635 4.44006 593 ft 7 kts 128°
2026-04-26 14:27 50.45630 4.44059 593 ft 4 kts 79°
2026-04-26 14:28 50.45636 4.44083 593 ft 0 kts 69°
2026-04-26 14:28 50.45659 4.44169 593 ft 34 kts 65°
2026-04-26 14:29 50.45852 4.44833 596 ft 101 kts 65°
2026-04-26 14:29 50.46226 4.46115 593 ft 156 kts 65°
2026-04-26 14:29 50.46703 4.47768 1122 ft 164 kts 63°
2026-04-26 14:29 50.47315 4.49207 1992 ft 158 kts 33°
2026-04-26 14:30 50.48423 4.49821 2374 ft 183 kts 19°
2026-04-26 14:30 50.49496 4.51072 2514 ft 210 kts 57°
2026-04-26 14:30 50.50220 4.53130 2981 ft 216 kts 59°
2026-04-26 14:30 50.51028 4.55168 3438 ft 228 kts 55°
2026-04-26 14:31 50.52000 4.57310 3719 ft 252 kts 53°
2026-04-26 14:31 50.53083 4.59577 3932 ft 278 kts 50°
2026-04-26 14:31 50.54647 4.61425 4503 ft 284 kts 15°
2026-04-26 14:31 50.56532 4.61379 5684 ft 269 kts 340°
2026-04-26 14:32 50.58059 4.59772 6520 ft 270 kts 310°
2026-04-26 14:32 50.59018 4.57220 7249 ft 272 kts 291°
2026-04-26 14:32 50.59383 4.54291 7928 ft 276 kts 271°
2026-04-26 14:32 50.59349 4.51252 8630 ft 279 kts 268°
2026-04-26 14:33 50.59250 4.48195 9404 ft 280 kts 267°
2026-04-26 14:33 50.59144 4.45133 10130 ft 283 kts 267°
2026-04-26 14:33 50.59042 4.42020 10700 ft 289 kts 268°
2026-04-26 14:33 50.58944 4.38781 10865 ft 311 kts 268°
2026-04-26 14:34 50.58843 4.35269 11053 ft 331 kts 268°
2026-04-26 14:34 50.58741 4.31609 11558 ft 338 kts 268°
2026-04-26 14:34 50.58640 4.27885 12195 ft 341 kts 268°
2026-04-26 14:34 50.58541 4.24144 12957 ft 341 kts 269°
2026-04-26 14:35 50.58442 4.20392 13627 ft 346 kts 269°
2026-04-26 14:35 50.58341 4.16583 14278 ft 350 kts 269°
2026-04-26 14:35 50.58238 4.12737 14928 ft 353 kts 269°
2026-04-26 14:35 50.58131 4.08870 15598 ft 355 kts 269°
2026-04-26 14:36 50.58060 4.06293 16043 ft 357 kts 269°
2026-04-26 14:36 50.57914 4.01049 16916 ft 361 kts 269°
2026-04-26 14:36 50.57804 3.97138 17549 ft 364 kts 269°
2026-04-26 14:36 50.57689 3.93154 18201 ft 366 kts 269°
2026-04-26 14:37 50.57517 3.89138 18802 ft 371 kts 262°
2026-04-26 14:37 50.56624 3.85303 19316 ft 380 kts 240°
2026-04-26 14:37 50.55564 3.83102 19700 ft 384 kts 229°
2026-04-26 14:37 50.53448 3.80491 20235 ft 393 kts 210°
2026-04-26 14:38 50.50954 3.78701 20798 ft 396 kts 206°
2026-04-26 14:38 50.48397 3.77019 21309 ft 400 kts 205°
2026-04-26 14:38 50.45818 3.75335 21806 ft 403 kts 205°
2026-04-26 14:38 50.43228 3.73620 22313 ft 406 kts 206°
2026-04-26 14:39 50.39780 3.71295 22994 ft 409 kts 206°
2026-04-26 14:39 50.38011 3.70094 23338 ft 411 kts 206°
2026-04-26 14:39 50.35417 3.68330 23814 ft 413 kts 206°
2026-04-26 14:39 50.32774 3.66537 24232 ft 416 kts 206°
2026-04-26 14:40 50.30111 3.64734 24619 ft 418 kts 206°
2026-04-26 14:40 50.27429 3.62921 25009 ft 421 kts 206°
2026-04-26 14:40 50.24735 3.61101 25393 ft 423 kts 206°
2026-04-26 14:40 50.22021 3.59270 25770 ft 426 kts 206°
2026-04-26 14:41 50.19293 3.57432 26145 ft 428 kts 206°
2026-04-26 14:41 50.16548 3.55587 26512 ft 431 kts 206°
2026-04-26 14:41 50.13792 3.53740 26868 ft 433 kts 206°
2026-04-26 14:41 50.11051 3.51906 27196 ft 436 kts 206°
2026-04-26 14:42 50.08263 3.50044 27583 ft 437 kts 206°
2026-04-26 14:42 50.05478 3.48185 28107 ft 434 kts 207°
2026-04-26 14:42 50.02707 3.46339 28647 ft 432 kts 207°
2026-04-26 14:42 49.99947 3.44501 29122 ft 431 kts 207°
2026-04-26 14:43 49.97190 3.42666 29547 ft 431 kts 207°
2026-04-26 14:43 49.94430 3.40831 29989 ft 431 kts 207°
2026-04-26 14:43 49.91679 3.39004 30422 ft 430 kts 207°
2026-04-26 14:43 49.88932 3.37182 30791 ft 429 kts 207°
2026-04-26 14:44 49.86221 3.35385 31143 ft 429 kts 207°
2026-04-26 14:44 49.80691 3.31728 31240 ft 434 kts 207°
2026-04-26 14:45 49.75180 3.28088 31232 ft 427 kts 207°
2026-04-26 14:45 49.69711 3.24473 31227 ft 428 kts 207°
2026-04-26 14:46 49.64226 3.20854 31249 ft 429 kts 207°
2026-04-26 14:46 49.58755 3.17256 31242 ft 431 kts 207°
2026-04-26 14:47 49.53228 3.13630 31236 ft 432 kts 207°
2026-04-26 14:47 49.47748 3.09868 31219 ft 428 kts 214°
2026-04-26 14:48 49.42806 3.04911 31229 ft 423 kts 218°
2026-04-26 14:48 49.37939 2.99844 31230 ft 422 kts 218°
2026-04-26 14:49 49.33093 2.94880 31230 ft 421 kts 218°
2026-04-26 14:49 49.28210 2.89938 31226 ft 420 kts 218°
2026-04-26 14:50 49.23328 2.85022 31227 ft 420 kts 218°
2026-04-26 14:50 49.18434 2.80106 31234 ft 421 kts 218°
2026-04-26 14:51 49.13539 2.75194 31287 ft 430 kts 217°
2026-04-26 14:51 49.08463 2.70112 31416 ft 443 kts 217°
2026-04-26 14:52 49.03235 2.64898 31592 ft 454 kts 217°
2026-04-26 14:52 49.00587 2.62263 31915 ft 452 kts 217°
2026-04-26 14:52 48.97980 2.59676 32506 ft 445 kts 217°
2026-04-26 14:52 48.95388 2.57103 32853 ft 444 kts 217°
2026-04-26 14:53 48.92799 2.54532 33041 ft 446 kts 218°
2026-04-26 14:53 48.90186 2.51939 33252 ft 448 kts 218°
2026-04-26 14:53 48.87582 2.49360 33583 ft 447 kts 218°
2026-04-26 14:53 48.84982 2.46789 33950 ft 445 kts 218°
2026-04-26 14:54 48.82392 2.44231 34238 ft 444 kts 218°
2026-04-26 14:54 48.79835 2.41707 34455 ft 444 kts 218°
2026-04-26 14:54 48.77243 2.39151 34680 ft 444 kts 218°
2026-04-26 14:54 48.74653 2.36601 34917 ft 443 kts 217°
2026-04-26 14:55 48.72070 2.34060 35168 ft 443 kts 217°
2026-04-26 14:55 48.69488 2.31524 35393 ft 442 kts 217°
2026-04-26 14:55 48.66907 2.28991 35602 ft 442 kts 217°
2026-04-26 14:55 48.64322 2.26456 35827 ft 442 kts 217°
2026-04-26 14:56 48.61744 2.23933 36033 ft 442 kts 217°
2026-04-26 14:56 48.59155 2.21417 36164 ft 444 kts 215°
2026-04-26 14:56 48.56381 2.19294 36353 ft 449 kts 205°
2026-04-26 14:56 48.53393 2.17871 36591 ft 453 kts 196°
2026-04-26 14:57 48.50306 2.16897 36842 ft 452 kts 195°
2026-04-26 14:57 48.47226 2.15982 37046 ft 451 kts 194°
2026-04-26 14:57 48.44153 2.15057 37176 ft 449 kts 195°
2026-04-26 14:58 48.38054 2.13136 37196 ft 448 kts 195°
2026-04-26 14:58 48.31919 2.11160 37217 ft 453 kts 195°
2026-04-26 14:59 48.25596 2.10415 37199 ft 463 kts 176°
2026-04-26 14:59 48.19190 2.11892 37187 ft 467 kts 173°
2026-04-26 15:00 48.12817 2.13294 37200 ft 463 kts 177°
2026-04-26 15:00 48.06408 2.13799 37201 ft 456 kts 181°
2026-04-26 15:01 48.00119 2.14052 37210 ft 454 kts 181°
2026-04-26 15:01 47.93808 2.14350 37212 ft 453 kts 180°
2026-04-26 15:02 47.87518 2.14698 37209 ft 452 kts 180°
2026-04-26 15:02 47.81223 2.15065 37193 ft 453 kts 180°
2026-04-26 15:03 47.74906 2.15433 37170 ft 455 kts 180°
2026-04-26 15:03 47.68612 2.15796 37184 ft 456 kts 180°
2026-04-26 15:04 47.62243 2.16163 37187 ft 458 kts 180°
2026-04-26 15:04 47.55862 2.16529 37182 ft 460 kts 180°
2026-04-26 15:05 47.49446 2.16897 37179 ft 462 kts 180°
2026-04-26 15:05 47.43055 2.16535 37177 ft 458 kts 195°
2026-04-26 15:06 47.36909 2.14122 37168 ft 457 kts 198°
2026-04-26 15:06 47.30767 2.11638 37168 ft 458 kts 198°
2026-04-26 15:07 47.21525 2.08013 37165 ft 458 kts 197°
2026-04-26 15:07 47.15357 2.05635 37150 ft 458 kts 197°
2026-04-26 15:08 47.09197 2.03270 37156 ft 457 kts 197°
2026-04-26 15:08 47.03047 2.00913 37162 ft 456 kts 197°
2026-04-26 15:09 46.96924 1.98570 37164 ft 454 kts 197°
2026-04-26 15:09 46.90811 1.96236 37159 ft 453 kts 197°
2026-04-26 15:10 46.85739 1.94304 37162 ft 453 kts 197°
2026-04-26 15:10 46.78618 1.91597 37167 ft 452 kts 197°
2026-04-26 15:11 46.72533 1.89290 37167 ft 452 kts 197°
2026-04-26 15:11 46.66469 1.86997 37175 ft 453 kts 197°
2026-04-26 15:12 46.60369 1.84694 37176 ft 453 kts 197°
2026-04-26 15:12 46.54261 1.82395 37166 ft 454 kts 197°
2026-04-26 15:13 46.48143 1.80097 37169 ft 454 kts 197°
2026-04-26 15:13 46.42021 1.77803 37175 ft 455 kts 197°
2026-04-26 15:14 46.35891 1.75511 37171 ft 456 kts 197°
2026-04-26 15:14 46.29746 1.73219 37176 ft 456 kts 197°
2026-04-26 15:15 46.23591 1.70928 37176 ft 457 kts 197°
2026-04-26 15:15 46.17433 1.68642 37176 ft 457 kts 197°
2026-04-26 15:16 46.11265 1.66358 37168 ft 458 kts 197°
2026-04-26 15:16 46.05091 1.64076 37174 ft 458 kts 197°
2026-04-26 15:17 45.99961 1.62184 37169 ft 458 kts 197°
2026-04-26 15:17 45.92738 1.59527 37164 ft 458 kts 196°
2026-04-26 15:18 45.86559 1.57259 37158 ft 458 kts 196°
2026-04-26 15:18 45.80388 1.55000 37175 ft 458 kts 196°
2026-04-26 15:19 45.74251 1.52758 37163 ft 457 kts 196°
2026-04-26 15:19 45.68050 1.50498 37159 ft 457 kts 196°
2026-04-26 15:20 45.61936 1.48274 37163 ft 456 kts 196°
2026-04-26 15:20 45.55785 1.46042 37145 ft 456 kts 196°
2026-04-26 15:21 45.49643 1.43818 37163 ft 455 kts 196°
2026-04-26 15:21 45.43505 1.41601 37160 ft 455 kts 196°
2026-04-26 15:22 45.37364 1.39388 37153 ft 455 kts 195°
2026-04-26 15:22 45.31234 1.37184 37150 ft 455 kts 196°
2026-04-26 15:23 45.25094 1.34981 37153 ft 455 kts 195°
2026-04-26 15:23 45.18957 1.32783 37161 ft 455 kts 195°
2026-04-26 15:24 45.12819 1.30591 37153 ft 455 kts 195°
2026-04-26 15:24 45.06672 1.28400 37163 ft 456 kts 195°
2026-04-26 15:25 45.01562 1.26583 37166 ft 456 kts 195°
2026-04-26 15:25 44.94359 1.24026 37156 ft 457 kts 195°
2026-04-26 15:26 44.88193 1.21843 37161 ft 457 kts 195°
2026-04-26 15:26 44.82017 1.19661 37151 ft 457 kts 195°
2026-04-26 15:27 44.75835 1.17482 37150 ft 457 kts 195°
2026-04-26 15:27 44.69666 1.15313 37158 ft 457 kts 195°
2026-04-26 15:28 44.63531 1.13160 37149 ft 457 kts 195°
2026-04-26 15:28 44.57368 1.11001 37144 ft 456 kts 195°
2026-04-26 15:29 44.51223 1.08854 37148 ft 455 kts 195°
2026-04-26 15:30 44.38936 1.04575 37150 ft 454 kts 195°
2026-04-26 15:30 44.32805 1.02446 37154 ft 453 kts 195°
2026-04-26 15:31 44.24656 0.99625 37144 ft 453 kts 195°
2026-04-26 15:32 44.16526 0.96817 37145 ft 452 kts 195°
2026-04-26 15:32 44.09390 0.94359 37146 ft 452 kts 195°
2026-04-26 15:33 44.03285 0.92262 37145 ft 452 kts 195°
2026-04-26 15:33 43.97182 0.90168 37144 ft 451 kts 195°
2026-04-26 15:34 43.91078 0.88079 37144 ft 451 kts 195°
2026-04-26 15:34 43.84953 0.86117 37145 ft 452 kts 192°
2026-04-26 15:35 43.78777 0.84506 37147 ft 452 kts 191°
2026-04-26 15:35 43.72596 0.82928 37146 ft 452 kts 191°
2026-04-26 15:36 43.66424 0.81309 37147 ft 451 kts 192°
2026-04-26 15:36 43.60289 0.79677 37148 ft 451 kts 192°
2026-04-26 15:37 43.54123 0.78034 37145 ft 451 kts 192°
2026-04-26 15:37 43.47963 0.76397 37146 ft 451 kts 192°
2026-04-26 15:38 43.41801 0.74764 37149 ft 450 kts 191°
2026-04-26 15:38 43.35658 0.73139 37151 ft 449 kts 191°
2026-04-26 15:39 43.29527 0.71521 37149 ft 448 kts 191°
2026-04-26 15:39 43.24439 0.70181 37158 ft 448 kts 191°
2026-04-26 15:40 43.17291 0.68302 37158 ft 447 kts 192°
2026-04-26 15:40 43.11224 0.66711 37159 ft 446 kts 191°
2026-04-26 15:41 42.98733 0.63445 37174 ft 445 kts 192°
2026-04-26 15:42 42.92700 0.61872 37179 ft 444 kts 191°
2026-04-26 15:42 42.86627 0.60292 37191 ft 444 kts 191°
2026-04-26 15:43 42.80551 0.58714 37190 ft 445 kts 191°
2026-04-26 15:44 42.71407 0.56345 37200 ft 446 kts 191°
2026-04-26 15:44 42.62276 0.53999 37190 ft 448 kts 191°
2026-04-26 15:45 42.53082 0.51649 37183 ft 449 kts 191°
2026-04-26 15:46 42.43878 0.49302 37158 ft 449 kts 191°
2026-04-26 15:46 42.38780 0.48004 37157 ft 448 kts 191°
2026-04-26 15:47 42.28610 0.45413 37143 ft 447 kts 192°
2026-04-26 15:48 42.22500 0.43851 37122 ft 446 kts 192°
2026-04-26 15:48 42.16411 0.42296 37120 ft 445 kts 192°
2026-04-26 15:49 42.10375 0.40762 37096 ft 444 kts 192°
2026-04-26 15:49 42.04312 0.39225 37099 ft 443 kts 192°
2026-04-26 15:50 41.98261 0.37692 37086 ft 442 kts 191°
2026-04-26 15:50 41.92211 0.36168 37094 ft 442 kts 191°
2026-04-26 15:51 41.86171 0.34651 37100 ft 442 kts 191°
2026-04-26 15:51 41.80131 0.33136 37095 ft 442 kts 191°
2026-04-26 15:52 41.74127 0.31633 37102 ft 442 kts 192°
2026-04-26 15:52 41.68080 0.30132 37091 ft 442 kts 192°
2026-04-26 15:53 41.62023 0.28633 37085 ft 442 kts 192°
2026-04-26 15:53 41.55968 0.27137 37081 ft 443 kts 192°
2026-04-26 15:54 41.49914 0.25642 37081 ft 442 kts 192°
2026-04-26 15:54 41.43905 0.24162 37072 ft 442 kts 192°
2026-04-26 15:55 41.37851 0.22674 37066 ft 442 kts 192°
2026-04-26 15:55 41.31804 0.21178 37070 ft 442 kts 192°
2026-04-26 15:56 41.25768 0.19644 37066 ft 441 kts 192°
2026-04-26 15:56 41.19743 0.18156 37066 ft 440 kts 192°
2026-04-26 15:57 41.13769 0.16688 37077 ft 439 kts 192°
2026-04-26 15:57 41.07878 0.14612 37072 ft 437 kts 199°
2026-04-26 15:58 41.02071 0.12176 37069 ft 437 kts 198°
2026-04-26 15:58 40.96253 0.09804 37075 ft 438 kts 198°
2026-04-26 15:59 40.90427 0.07482 37082 ft 438 kts 198°
2026-04-26 15:59 40.84578 0.05153 37082 ft 439 kts 198°
2026-04-26 16:00 40.78758 0.02810 37095 ft 441 kts 198°
2026-04-26 16:00 40.72870 0.00439 37098 ft 444 kts 198°
2026-04-26 16:01 40.66950 -0.01939 37092 ft 446 kts 198°
2026-04-26 16:01 40.61001 -0.04320 37099 ft 447 kts 198°
2026-04-26 16:02 40.55046 -0.06700 37104 ft 448 kts 198°
2026-04-26 16:02 40.49119 -0.09044 37103 ft 448 kts 198°
2026-04-26 16:03 40.43149 -0.11395 37105 ft 447 kts 198°
2026-04-26 16:03 40.37198 -0.13739 37102 ft 447 kts 198°
2026-04-26 16:04 40.31247 -0.16081 37102 ft 446 kts 198°
2026-04-26 16:04 40.25308 -0.18413 37101 ft 445 kts 197°
2026-04-26 16:05 40.19385 -0.20753 37107 ft 445 kts 198°
2026-04-26 16:05 40.13455 -0.23098 37110 ft 445 kts 198°
2026-04-26 16:06 40.07563 -0.25421 37118 ft 446 kts 198°
2026-04-26 16:06 40.01621 -0.27762 37130 ft 446 kts 198°
2026-04-26 16:07 39.95662 -0.30080 37122 ft 448 kts 197°
2026-04-26 16:07 39.89679 -0.32376 37126 ft 449 kts 198°
2026-04-26 16:08 39.83683 -0.34700 37129 ft 450 kts 197°
2026-04-26 16:08 39.77717 -0.37025 37123 ft 451 kts 198°
2026-04-26 16:09 39.71700 -0.39364 37132 ft 451 kts 197°
2026-04-26 16:09 39.65684 -0.41698 37133 ft 452 kts 197°
2026-04-26 16:10 39.59658 -0.44030 37124 ft 451 kts 197°
2026-04-26 16:10 39.53647 -0.46353 37136 ft 450 kts 198°
2026-04-26 16:11 39.47691 -0.48845 37118 ft 449 kts 206°
2026-04-26 16:11 39.42196 -0.52623 37128 ft 447 kts 210°
2026-04-26 16:12 39.36796 -0.56476 37127 ft 446 kts 210°
2026-04-26 16:12 39.28611 -0.62203 37125 ft 446 kts 210°
2026-04-26 16:13 39.23143 -0.65989 37125 ft 446 kts 209°
2026-04-26 16:13 39.17673 -0.69769 37118 ft 447 kts 210°
2026-04-26 16:14 39.12197 -0.73548 37131 ft 447 kts 209°
2026-04-26 16:15 39.03993 -0.79198 37118 ft 449 kts 208°
2026-04-26 16:15 38.98474 -0.82994 37129 ft 450 kts 209°
2026-04-26 16:16 38.90157 -0.88705 37126 ft 453 kts 209°
2026-04-26 16:16 38.84593 -0.92520 37120 ft 454 kts 209°
2026-04-26 16:17 38.79016 -0.96336 37123 ft 455 kts 209°
2026-04-26 16:17 38.73429 -1.00151 37132 ft 455 kts 209°
2026-04-26 16:18 38.65091 -1.05830 37137 ft 454 kts 208°
2026-04-26 16:19 38.57032 -1.11305 37134 ft 453 kts 208°
2026-04-26 16:20 38.48689 -1.16959 37129 ft 452 kts 209°
2026-04-26 16:20 38.40366 -1.22586 37118 ft 451 kts 208°
2026-04-26 16:21 38.34826 -1.26324 37126 ft 450 kts 208°
2026-04-26 16:21 38.29288 -1.30053 37119 ft 450 kts 208°
2026-04-26 16:22 38.23788 -1.33751 37125 ft 450 kts 209°
2026-04-26 16:22 38.18245 -1.37471 37133 ft 451 kts 208°
2026-04-26 16:23 38.12691 -1.41191 37116 ft 452 kts 208°
2026-04-26 16:23 38.07121 -1.44917 37120 ft 453 kts 209°
2026-04-26 16:24 38.01567 -1.48626 37129 ft 454 kts 209°
2026-04-26 16:24 37.95960 -1.52365 37118 ft 456 kts 208°
2026-04-26 16:25 37.90336 -1.56099 37115 ft 457 kts 209°
2026-04-26 16:25 37.85626 -1.59162 37109 ft 458 kts 209°
2026-04-26 16:26 37.79961 -1.62824 37117 ft 456 kts 209°
2026-04-26 16:26 37.74316 -1.66473 37117 ft 456 kts 209°
2026-04-26 16:27 37.68713 -1.70097 37111 ft 455 kts 209°
2026-04-26 16:27 37.63091 -1.73729 37107 ft 453 kts 209°
2026-04-26 16:28 37.57483 -1.77346 37109 ft 452 kts 209°
2026-04-26 16:28 37.51899 -1.80942 37112 ft 450 kts 209°
2026-04-26 16:29 37.46357 -1.84504 37108 ft 450 kts 209°
2026-04-26 16:29 37.40793 -1.88075 37106 ft 449 kts 209°
2026-04-26 16:30 37.35234 -1.91637 37097 ft 448 kts 209°
2026-04-26 16:30 37.29691 -1.95183 37104 ft 447 kts 209°
2026-04-26 16:31 37.24186 -1.98699 37102 ft 446 kts 209°
2026-04-26 16:31 37.18702 -2.02325 37108 ft 445 kts 211°
2026-04-26 16:32 37.13245 -2.05997 37106 ft 444 kts 211°
2026-04-26 16:32 37.07790 -2.09646 37086 ft 444 kts 210°
2026-04-26 16:33 37.02339 -2.13275 37080 ft 444 kts 210°
2026-04-26 16:33 36.96870 -2.16908 37062 ft 445 kts 211°
2026-04-26 16:34 36.91419 -2.20524 36654 ft 447 kts 211°
2026-04-26 16:34 36.88692 -2.22330 36292 ft 440 kts 211°
2026-04-26 16:34 36.85999 -2.24111 35900 ft 436 kts 211°
2026-04-26 16:35 36.83328 -2.25855 35505 ft 432 kts 208°
2026-04-26 16:35 36.80548 -2.27270 35109 ft 431 kts 202°
2026-04-26 16:35 36.77723 -2.28491 34717 ft 428 kts 200°
2026-04-26 16:35 36.74907 -2.29657 34323 ft 425 kts 200°
2026-04-26 16:36 36.72151 -2.30795 33936 ft 422 kts 201°
2026-04-26 16:36 36.69371 -2.31954 33491 ft 419 kts 201°
2026-04-26 16:36 36.66622 -2.33114 33081 ft 415 kts 201°
2026-04-26 16:36 36.63900 -2.34274 32689 ft 412 kts 201°
2026-04-26 16:37 36.61205 -2.35428 32310 ft 408 kts 201°
2026-04-26 16:37 36.58530 -2.36576 31934 ft 405 kts 203°
2026-04-26 16:37 36.55873 -2.37718 31570 ft 402 kts 201°
2026-04-26 16:37 36.53276 -2.38834 31206 ft 399 kts 201°
2026-04-26 16:38 36.50658 -2.39956 30836 ft 397 kts 201°
2026-04-26 16:38 36.48056 -2.41072 30483 ft 394 kts 201°
2026-04-26 16:38 36.45467 -2.42182 30118 ft 392 kts 201°
2026-04-26 16:38 36.42895 -2.43286 29699 ft 390 kts 202°
2026-04-26 16:39 36.40341 -2.44381 29289 ft 387 kts 202°
2026-04-26 16:39 36.37810 -2.45463 28919 ft 383 kts 201°
2026-04-26 16:39 36.35300 -2.46534 28535 ft 380 kts 200°
2026-04-26 16:39 36.32808 -2.47597 28168 ft 377 kts 202°
2026-04-26 16:40 36.30367 -2.48639 27803 ft 375 kts 202°
2026-04-26 16:40 36.27882 -2.49700 27452 ft 383 kts 201°
2026-04-26 16:40 36.25308 -2.50800 27087 ft 398 kts 202°
2026-04-26 16:40 36.22676 -2.51926 26678 ft 402 kts 201°
2026-04-26 16:41 36.20038 -2.53047 26271 ft 399 kts 201°
2026-04-26 16:41 36.17423 -2.54157 25890 ft 396 kts 201°
2026-04-26 16:41 36.14826 -2.55256 25500 ft 393 kts 202°
2026-04-26 16:41 36.12249 -2.56351 25121 ft 391 kts 201°
2026-04-26 16:42 36.09673 -2.57445 24739 ft 390 kts 201°
2026-04-26 16:42 36.07111 -2.58532 24352 ft 390 kts 200°
2026-04-26 16:42 36.04586 -2.59605 23968 ft 389 kts 202°
2026-04-26 16:42 36.02032 -2.60686 23564 ft 387 kts 201°
2026-04-26 16:43 35.99494 -2.61761 23126 ft 384 kts 200°
2026-04-26 16:43 35.96975 -2.62825 22720 ft 381 kts 200°
2026-04-26 16:43 35.94482 -2.63879 22335 ft 377 kts 202°
2026-04-26 16:43 35.92012 -2.64922 21949 ft 374 kts 200°
2026-04-26 16:44 35.89565 -2.65958 21588 ft 370 kts 200°
2026-04-26 16:44 35.87134 -2.66982 21220 ft 367 kts 200°
2026-04-26 16:44 35.84724 -2.67998 20851 ft 365 kts 200°
2026-04-26 16:44 35.82330 -2.69003 20474 ft 363 kts 200°
2026-04-26 16:45 35.79968 -2.69977 20077 ft 362 kts 199°
2026-04-26 16:45 35.77589 -2.70950 19711 ft 360 kts 200°
2026-04-26 16:45 35.75215 -2.71920 19351 ft 358 kts 200°
2026-04-26 16:45 35.72857 -2.72884 19001 ft 356 kts 199°
2026-04-26 16:46 35.70509 -2.73844 18640 ft 355 kts 199°
2026-04-26 16:46 35.68168 -2.74800 18269 ft 354 kts 200°
2026-04-26 16:46 35.65840 -2.75751 17878 ft 352 kts 200°
2026-04-26 16:46 35.63530 -2.76696 17509 ft 349 kts 199°
2026-04-26 16:47 35.61267 -2.77621 17165 ft 347 kts 199°
2026-04-26 16:47 35.58972 -2.78558 16820 ft 352 kts 199°
2026-04-26 16:47 35.56623 -2.79518 16474 ft 360 kts 199°
2026-04-26 16:47 35.54237 -2.80492 16112 ft 363 kts 199°
2026-04-26 16:48 35.51841 -2.81468 15727 ft 361 kts 199°
2026-04-26 16:48 35.49462 -2.82436 15374 ft 359 kts 199°
2026-04-26 16:48 35.47107 -2.83391 15073 ft 355 kts 199°
2026-04-26 16:48 35.44764 -2.84340 14720 ft 354 kts 199°
2026-04-26 16:49 35.42437 -2.85282 14369 ft 350 kts 199°
2026-04-26 16:49 35.40144 -2.86210 14021 ft 345 kts 199°
2026-04-26 16:49 35.37876 -2.87127 13659 ft 341 kts 199°
2026-04-26 16:49 35.35668 -2.88019 13280 ft 337 kts 199°
2026-04-26 16:50 35.33460 -2.88912 12914 ft 332 kts 199°
2026-04-26 16:50 35.31272 -2.89796 12573 ft 330 kts 199°
2026-04-26 16:50 35.29102 -2.90672 12235 ft 327 kts 199°
2026-04-26 16:50 35.26949 -2.91541 11894 ft 325 kts 199°
2026-04-26 16:51 35.24811 -2.92404 11558 ft 323 kts 199°
2026-04-26 16:51 35.22681 -2.93262 11223 ft 321 kts 199°
2026-04-26 16:51 35.20568 -2.94114 10881 ft 317 kts 199°
2026-04-26 16:51 35.18515 -2.94939 10548 ft 305 kts 199°
2026-04-26 16:52 35.16533 -2.95735 10242 ft 294 kts 200°
2026-04-26 16:52 35.15270 -2.96243 10152 ft 284 kts 199°
2026-04-26 16:52 35.12793 -2.97241 9943 ft 287 kts 200°
2026-04-26 16:52 35.10874 -2.98014 9615 ft 293 kts 199°
2026-04-26 16:53 35.08941 -2.98791 9312 ft 292 kts 199°
2026-04-26 16:53 35.07013 -2.99566 9000 ft 289 kts 199°
2026-04-26 16:53 35.05132 -3.00320 8690 ft 281 kts 199°
2026-04-26 16:53 35.03297 -3.01056 8390 ft 275 kts 199°
2026-04-26 16:54 35.01487 -3.01781 8097 ft 272 kts 199°
2026-04-26 16:54 34.99831 -3.02828 7904 ft 267 kts 223°
2026-04-26 16:54 34.98833 -3.04650 7803 ft 255 kts 249°
2026-04-26 16:54 34.98518 -3.06732 7694 ft 247 kts 265°
2026-04-26 16:55 34.98448 -3.08763 7599 ft 240 kts 265°
2026-04-26 16:55 34.98393 -3.10778 7498 ft 237 kts 265°
2026-04-26 16:55 34.98334 -3.12807 7391 ft 242 kts 266°
2026-04-26 16:55 34.98268 -3.14897 7154 ft 251 kts 264°
2026-04-26 16:56 34.98130 -3.19119 6638 ft 245 kts 265°
2026-04-26 16:56 34.98061 -3.21174 6371 ft 242 kts 264°
2026-04-26 16:56 34.97987 -3.23228 6098 ft 244 kts 264°
2026-04-26 16:57 34.97914 -3.25293 5837 ft 244 kts 266°
2026-04-26 16:57 34.97840 -3.27326 5585 ft 241 kts 266°
2026-04-26 16:57 34.97278 -3.31117 5066 ft 221 kts 226°
2026-04-26 16:58 34.96000 -3.31915 4895 ft 205 kts 180°
2026-04-26 16:58 34.95117 -3.31677 4797 ft 193 kts 148°
2026-04-26 16:58 34.94429 -3.28321 4463 ft 188 kts 79°
2026-04-26 16:59 34.94704 -3.26795 4264 ft 183 kts 75°
2026-04-26 16:59 34.95241 -3.23861 3838 ft 173 kts 78°
2026-04-26 17:00 34.95729 -3.21051 3451 ft 167 kts 78°
2026-04-26 17:00 34.96220 -3.18311 3015 ft 163 kts 77°
2026-04-26 17:00 34.96462 -3.16998 2821 ft 151 kts 77°
2026-04-26 17:01 34.96678 -3.15818 2616 ft 137 kts 78°
2026-04-26 17:01 34.96870 -3.14710 2442 ft 132 kts 78°
2026-04-26 17:01 34.97061 -3.13600 2257 ft 134 kts 78°
2026-04-26 17:01 34.97249 -3.12510 2101 ft 126 kts 79°
2026-04-26 17:02 34.97430 -3.11456 1877 ft 126 kts 78°
2026-04-26 17:02 34.97613 -3.10394 1710 ft 134 kts 76°
2026-04-26 17:02 34.97802 -3.09293 1513 ft 133 kts 75°
2026-04-26 17:02 34.97992 -3.08186 1336 ft 134 kts 75°
2026-04-26 17:03 34.98186 -3.07063 1086 ft 136 kts 75°
2026-04-26 17:03 34.98377 -3.05952 888 ft 131 kts 76°
2026-04-26 17:03 34.98566 -3.04886 724 ft 125 kts 76°
2026-04-26 17:03 34.98741 -3.03866 605 ft 116 kts 78°
2026-04-26 17:04 34.98876 -3.03081 603 ft 73 kts 78°
2026-04-26 17:04 34.98954 -3.02624 601 ft 32 kts 78°
2026-04-26 17:04 34.98996 -3.02378 602 ft 26 kts 78°
2026-04-26 17:04 34.99033 -3.02208 603 ft 17 kts 62°
2026-04-26 17:05 34.99146 -3.02184 603 ft 18 kts 347°
2026-04-26 17:05 34.99253 -3.02222 603 ft 15 kts 322°
2026-04-26 17:05 34.99265 -3.02355 603 ft 19 kts 257°
2026-04-26 17:05 34.99240 -3.02503 603 ft 15 kts 258°
2026-04-26 17:06 34.99219 -3.02623 603 ft 14 kts 258°
2026-04-26 17:06 34.99198 -3.02748 603 ft 17 kts 258°
2026-04-26 17:06 34.99255 -3.02804 603 ft 12 kts 62°
2026-04-26 17:06 34.99247 -3.02768 603 ft 2 kts 126°
2026-04-26 17:07 34.99246 -3.02767 603 ft 0 kts 125°